Regional Weather Roundup
Issued by NWS

Home | Current Version | Previous Version | Graphics & Text | Print | Product List | Glossary Off
Versions: 1 2 3 4 5 6 7 8 9 10 11 12 13 14 15 16 17 18 19 20 21 22 23 24 25 26 27 28 29 30 31 32 33 34 35 36 37 38 39 40 41 42 43 44 45 46 47 48 49 50

000
ASUS43 KMPX 010001
RWRMN
WEATHER ROUNDUP FOR MINNESOTA
NATIONAL WEATHER SERVICE TWIN CITIES/CHANHASSEN MN
700 PM CDT TUE JUN 30 2015


NOTE: "FAIR" INDICATES FEW OR NO CLOUDS BELOW 12,000 FEET WITH NO
SIGNIFICANT WEATHER AND/OR OBSTRUCTIONS TO VISIBILITY. N/A MEANS
CURRENT SKY AND/OR WEATHER CONDITIONS ARE NOT AVAILABLE.

MNZ060>063-068>070-010100-
   Twin Cities Metro

CITY           SKY/WX    TMP DP  RH WIND       PRES   REMARKS
TWIN CITIES    PTSUNNY   73  55  53 NE9       29.91R
6HR MIN TEMP:  73; 6HR MAX TEMP:  77;

ST PAUL        MOSUNNY   73  53  49 NE7       29.92R
CRYSTAL        PTSUNNY   74  57  55 NE9       29.91R
LAKEVILLE      PTSUNNY   72  55  56 NE7       29.91R
EDEN PRAIRIE   PTSUNNY   75  58  55 NE6       29.90R
6HR MIN TEMP:  73; 6HR MAX TEMP:  78;

SOUTH ST PAUL  MOSUNNY   73  50  44 N6        29.92R
LAKE ELMO      FAIR      72  57  60 CALM      29.93R
$$
MNZ001>005-007-008-013>017-022>024-027-028-010100-
   Northwest Minnesota

CITY           SKY/WX    TMP DP  RH WIND       PRES   REMARKS
BEMIDJI        MOSUNNY   73  52  47 E3        29.93S
HALLOCK        PTSUNNY   75  59  57 SW6       29.90F
ROSEAU         PTSUNNY   72  59  64 E5        29.93S
WARROAD        CLOUDY    70  55  60 E5        29.94F
THIEF RVR FALL MOSUNNY   73  55  53 CALM      29.93S
CROOKSTON      PTSUNNY   73  55  53 CALM      29.92F
FOSSTON        MOSUNNY   73  57  56 CALM      29.94S
DETROIT LAKES  PTSUNNY   72  55  56 CALM      29.94S
MOORHEAD       CLOUDY    72  61  68 CALM      29.92F
PARK RAPIDS    PTSUNNY   75  53  46 E3        29.93S
MAHNOMEN       FAIR      72  56  57 CALM      29.93S
$$
MNZ006-009>011-018-025>026-010100-
   North Central Minnesota

CITY           SKY/WX    TMP DP  RH WIND       PRES   REMARKS
BAUDETTE       CLOUDY    69  55  60 N5        29.94R
FLAG ISLAND    CLOUDY    68  52  56 CALM      29.93S
INTL FALLS     MOSUNNY   68  51  54 NE5       29.95S
6HR MIN TEMP:  67; 6HR MAX TEMP:  71;

WASKISH        PTSUNNY   72  59  64 SW3       29.94R
BIG FORK       PTSUNNY   72  52  49 CALM      29.94S
LONGVILLE      PTSUNNY   72  55  56 CALM      29.93S
GRAND RAPIDS   PTSUNNY   70  54  56 CALM      29.94S
CRANE LAKE     MOSUNNY   68  48  49 NW1       29.96S
COOK           MOSUNNY   66  55  68 CALM      29.95S
WALKER         FAIR      71  52  51 CALM      29.93S
$$
MNZ012-019>021-037-010100-
   Northeast Minnesota

CITY           SKY/WX    TMP DP  RH WIND       PRES   REMARKS
DULUTH         PTSUNNY   60  45  57 SE10      29.96S
6HR MIN TEMP:  60; 6HR MAX TEMP:  63;

ELY            SUNNY     68  45  42 CALM      29.95R
HIBBING        MOSUNNY   71  50  47 N6        29.94R
EVELETH        MOSUNNY   70  50  49 NW3       29.96R
DULUTH HARBOR  PTSUNNY   59  52  77 E9        29.97R
TWO HARBORS    MOSUNNY   63  52  67 E5        29.94F
SILVER BAY     SUNNY     57  48  72 CALM      29.96F
GRAND MARAIS     N/A     52  48  86 SW6       29.98S
G MARAIS ARPRT SUNNY     55  45  67 S3        29.98S
$$
MNZ029>031-032-039>041-046>048-054>057-064-010100-
   West Central Minnesota

CITY           SKY/WX    TMP DP  RH WIND       PRES   REMARKS
FERGUS FALLS   CLOUDY    70  61  73 W5        29.92S
WHEATON        CLOUDY    70  59  68 E5        29.93S
MORRIS         PTSUNNY   72  61  68 SW3       29.92R
ALEXANDRIA     PTSUNNY   72  57  59 SE6       29.94R
ELBOW LAKE     FAIR      70  62  74 CALM      29.92S
WADENA           N/A     72  57  60 S5        29.93R
GLENWOOD       CLOUDY    72  59  64 CALM      29.93S
APPLETON       PTSUNNY   73  61  64 CALM      29.91S
BENSON         PTSUNNY   72  61  68 CALM      29.92R
ORTONVILLE     PTSUNNY   72  59  64 SE5       29.91S
MADISON        PTSUNNY   72  61  68 CALM      29.91F
WILLMAR        FAIR      73  63  68 CALM      29.93R
$$
MNZ033>034-036-042>043-049>051-058-059-010100-
   Central Minnesota

CITY           SKY/WX    TMP DP  RH WIND       PRES   REMARKS
ST CLOUD       PTSUNNY   72  57  59 SE5       29.91S
6HR MIN TEMP:  72; 6HR MAX TEMP:  77;

SAUK CENTRE    FAIR      73  57  57 CALM      29.93R
PAYNESVILLE    CLOUDY    71  55  58 E3        29.93R
AITKIN         PTSUNNY   73  55  53 E3        29.92R
PINE RIVER       N/A     73  57  56 CALM      29.96S
BRAINERD       MOSUNNY   72  55  55 CALM      29.92F
STAPLES        PTSUNNY   73  54  49 E5        29.93S
LONG PRAIRIE   FAIR      70  57  64 NE3       29.94R
LITTLE FALLS   PTSUNNY   73  52  46 E5        29.93R
LITCHFIELD     PTSUNNY   73  57  56 E7        29.92S
BUFFALO        PTSUNNY   73  55  51 NE6       29.93S
MAPLE LAKE     PTSUNNY   73  60  63 NE7       29.93R
$$
MNZ037-044-045-052-053-010100-
   East Central Minnesota

CITY           SKY/WX    TMP DP  RH WIND       PRES   REMARKS
PRINCETON      MOSUNNY   73  59  60 CALM      29.93R
MORA           MOSUNNY   70  54  56 E6        29.95R
CAMBRIDGE      MOSUNNY   73  57  56 CALM      29.91S
RUSH CITY      MOSUNNY   70  56  61 NE6       29.93S
MOOSE LAKE     PTSUNNY   66  57  72 CALM      29.93R
HINCKLEY       FAIR      68  54  60 E7        29.94R
CLOQUET        PTSUNNY   61  48  63 SE6       29.96R
MCGREGOR       PTSUNNY   72  54  53 N5        29.94R
$$
MNZ071>073-080-081-089-090-097-098-010100-
   Southwest Minnesota

CITY           SKY/WX    TMP DP  RH WIND       PRES   REMARKS
MONTEVIDEO     PTSUNNY   73  61  64 CALM      29.92S
GRANITE FALLS  PTSUNNY   72  59  64 CALM      29.93R
CANBY          CLOUDY    70  62  76 E6        29.92S
MARSHALL       CLOUDY    70  61  73 E5          N/A
REDWOOD FALLS  PTSUNNY   74  58  57 S3        29.90S
OLIVIA         PTSUNNY   70  57  64 W3        29.91R
PIPESTONE      CLOUDY    72  63  73 E6        29.92R
WINDOM         CLOUDY    70  61  73 CALM      29.92S
WORTHINGTON    CLOUDY    70  61  73 E9        29.92R
JACKSON        CLOUDY    70  63  78 NE6       29.92S
TRACY          CLOUDY    71  64  79 CALM      29.92S
SLAYTON        CLOUDY    69  62  78 CALM      29.93S
$$
MNZ065>067-074>077-082>085-091>093-010100-
   South Central Minnesota

CITY           SKY/WX    TMP DP  RH WIND       PRES   REMARKS
MANKATO        MOSUNNY   73  57  56 E6        29.91R
NEW ULM        MOSUNNY   72  61  68 CALM      29.90S
ST JAMES       MOSUNNY   73  63  68 CALM      29.92R
FAIRMONT       PTSUNNY   72  57  60 CALM      29.90F
GLENCOE        PTSUNNY   73  60  65 CALM      29.91S
FARIBAULT      MOSUNNY   73  59  60 NE5       29.91S
OWATONNA       MOSUNNY   72  57  60 NE7       29.92R
WASECA         PTSUNNY   72  59  64 E7        29.92S
ALBERT LEA     MOSUNNY   72  57  60 NE6       29.90S
$$
MNZ078>079-086>088-094>096-010100-
   Southeast Minnesota

CITY           SKY/WX    TMP DP  RH WIND       PRES   REMARKS
ROCHESTER      PTSUNNY   70  56  61 NE10      29.92S
6HR MIN TEMP:  67; 6HR MAX TEMP:  74;

RED WING       MOSUNNY   73  54  49 NE5       29.89S
STANTON        MOSUNNY   73  57  56 NE8       29.90R
DODGE CENTER   PTSUNNY   72  57  60 N7        29.92R
WINONA         MOSUNNY   73  55  53 N3        29.90S
AUSTIN         PTSUNNY   73  59  60 CALM      29.90S
PRESTON        PTSUNNY   70  57  64 N7        29.91S
$$
ABBREVIATIONS USED IN REMARKS
   TC - TEMPERATURES IN CELSIUS
  WCI - WIND CHILL INDEX
   HX - HEAT INDEX
  VSB - VISIBILITY
$$



USA.gov is the U.S. government's official web portal to all federal, state and local government web resources and services.